Location: Madrid
(40.4000°N, 3.6830°W)
Time: 01:07:08
(UTC+01:00)

ISS - Visible Passes

Search period start: 27 February 2020 00:00
Search period end: 08 March 2020 00:00
Orbit: 415 x 422 km, 51.6° (Epoch: 27 February)

Date Brightness Start Highest point End Pass type
(mag) Time Alt. Az. Time Alt. Az. Time Alt. Az.
27 Feb -2.5 05:59:19 34° NNE 05:59:19 34° NNE 06:01:36 10° NE visible
28 Feb -0.5 05:13:40 13° NE 05:13:40 13° NE 05:14:02 10° NE visible
28 Feb -1.8 06:46:37 15° NW 06:47:53 18° NNW 06:50:19 10° NNE visible
29 Feb -1.8 06:00:53 21° N 06:00:53 21° N 06:02:50 10° NNE visible
01 Mar -0.5 05:15:06 11° NE 05:15:06 11° NE 05:15:20 10° NE visible
01 Mar -1.3 06:48:09 10° NW 06:49:52 13° N 06:51:36 10° NNE visible
02 Mar -1.4 06:02:13 15° N 06:02:13 15° N 06:04:00 10° NNE visible
03 Mar -0.5 05:16:21 11° NNE 05:16:21 11° NNE 05:16:28 10° NNE visible
03 Mar -1.2 06:50:22 10° NNW 06:51:53 12° N 06:53:24 10° NNE visible
04 Mar -1.2 06:03:24 12° NNW 06:03:54 12° N 06:05:25 10° NNE visible
05 Mar -0.6 05:17:31 10° NNE 05:17:31 10° NNE 05:17:39 10° NNE visible
05 Mar -1.2 06:51:46 10° NNW 06:53:50 15° NNE 06:55:52 10° NE visible
06 Mar -1.1 06:04:34 11° NNW 06:05:51 13° N 06:07:35 10° NE visible
07 Mar -0.7 05:18:41 12° NNE 05:18:41 12° NNE 05:19:22 10° NNE visible
07 Mar -1.7 06:52:50 10° NNW 06:55:36 23° NNE 06:58:23 10° ENE visible
